{"data":{"norad_id":28810,"epoch":"2026-09-19T14:34:17.292576Z","epoch_age_seconds":91549,"freshness":"FRESH","line1":"1 28810U 05031B   26262.60714459  .00003110  00000+0  18623-3 0  9999","line2":"2 28810  98.0253  31.1833 0019922 147.9013 212.3433 15.11674242145253","mean_motion":15.11674242,"eccentricity":0.0019922,"inclination_deg":98.0253,"raan_deg":31.1833,"arg_perigee_deg":147.9013,"mean_anomaly_deg":212.3433,"bstar":0.00018623,"rev_number":14525,"period_min":95.258618556259,"perigee_km":517.32921374039,"apogee_km":544.8583528734,"semimajor_km":6909.2307833069,"source":"CELESTRAK","updated_at":"2026-09-20T09:00:13.633822Z"}}